Total_Precipitation_Accumulation
0.00 0.00 0.00 0.00 0.00 0.00 0.01 0.03 0.06 0.08 0.01 0.00 0.00 0.00 0.00 0.00 0.00 0.00 0.00 0.00 0.00 0.00 0.00 0.01 0.01 0.01 0.00 0.00 0.00 0.01 0.02 0.02 0.02 0.02 0.02 0.01 0.01 0.01 0.01 0.02 0.08 0.10 0.08 0.04 0.01 0.00 0.00 0.01 0.01
0.00 0.00 0.00 0.00 0.00 0.00 0.01 0.02 0.08 0.12 0.01 0.00 0.00 0.00 0.00 0.00 0.00 0.00 0.00 0.00 0.00 0.00 0.00 0.00 0.01 0.00 0.00 0.00 0.00 0.01 0.01 0.01 0.01 0.02 0.02 0.01 0.01 0.01 0.01 0.02 0.05 0.08 0.07 0.06 0.02 0.01 0.00 0.00 0.00
0.00 0.00 0.00 0.00 0.00 0.00 0.01 0.06 0.05 0.04 0.01 0.01 0.00 0.00 0.00 0.00 0.00 0.00 0.00 0.00 0.00 0.00 0.00 0.01 0.01 0.00 0.00 0.00 0.00 0.01 0.01 0.00 0.00 0.00 0.01 0.02 0.02 0.01 0.01 0.02 0.03 0.03 0.03 0.04 0.04 0.02 0.01 0.01 0.00
0.00 0.00 0.00 0.00 0.00 0.00 0.02 0.08 0.03 0.04 0.04 0.02 0.00 0.00 0.00 0.00 0.00 0.00 0.00 0.00 0.00 0.00 0.00 0.01 0.01 0.00 0.00 0.00 0.00 0.00 0.00 0.00 0.00 0.00 0.00 0.01 0.01 0.01 0.02 0.02 0.03 0.04 0.05 0.04 0.05 0.05 0.05 0.04 0.02
0.00 0.00 0.00 0.00 0.00 0.00 0.04 0.10 0.05 0.09 0.06 0.01 0.00 0.00 0.00 0.00 0.00 0.00 0.00 0.00 0.00 0.00 0.00 0.01 0.01 0.01 0.01 0.01 0.00 0.00 0.00 0.00 0.00 0.00 0.00 0.00 0.01 0.01 0.02 0.02 0.03 0.03 0.06 0.06 0.06 0.06 0.04 0.07 0.06
0.00 0.00 0.00 0.00 0.00 0.00 0.02 0.07 0.10 0.15 0.14 0.04 0.01 0.00 0.00 0.00 0.00 0.00 0.00 0.00 0.00 0.00 0.00 0.01 0.01 0.01 0.00 0.01 0.00 0.00 0.00 0.00 0.00 0.00 0.00 0.00 0.00 0.00 0.01 0.02 0.02 0.01 0.02 0.04 0.05 0.08 0.06 0.04 0.08
0.00 0.00 0.00 0.00 0.00 0.00 0.01 0.03 0.09 0.23 0.30 0.18 0.09 0.01 0.00 0.00 0.00 0.00 0.00 0.00 0.00 0.00 0.00 0.00 0.01 0.01 0.01 0.00 0.00 0.00 0.00 0.00 0.00 0.00 0.00 0.00 0.00 0.00 0.00 0.00 0.00 0.00 0.00 0.01 0.01 0.02 0.03 0.02 0.05
0.00 0.00 0.00 0.00 0.00 0.00 0.01 0.02 0.05 0.12 0.27 0.23 0.19 0.05 0.00 0.00 0.00 0.00 0.00 0.00 0.00 0.00 0.00 0.00 0.00 0.00 0.00 0.00 0.00 0.00 0.00 0.00 0.00 0.00 0.00 0.00 0.00 0.00 0.00 0.00 0.00 0.00 0.00 0.00 0.00 0.00 0.01 0.01 0.02
0.00 0.00 0.00 0.00 0.00 0.00 0.01 0.01 0.04 0.11 0.14 0.12 0.18 0.13 0.02 0.00 0.00 0.00 0.00 0.01 0.01 0.01 0.00 0.00 0.00 0.00 0.00 0.00 0.00 0.00 0.00 0.00 0.00 0.00 0.00 0.00 0.00 0.00 0.00 0.00 0.00 0.01 0.02 0.04 0.04 0.03 0.03 0.02 0.01
0.00 0.00 0.00 0.00 0.00 0.00 0.00 0.00 0.01 0.07 0.13 0.13 0.11 0.12 0.05 0.00 0.00 0.00 0.00 0.00 0.00 0.00 0.00 0.00 0.00 0.00 0.01 0.01 0.00 0.00 0.00 0.00 0.00 0.00 0.00 0.00 0.00 0.00 0.00 0.00 0.03 0.07 0.08 0.10 0.14 0.15 0.10 0.04 0.01
0.00 0.00 0.00 0.00 0.00 0.00 0.00 0.00 0.00 0.01 0.06 0.08 0.04 0.06 0.04 0.01 0.00 0.00 0.00 0.00 0.00 0.00 0.00 0.00 0.00 0.01 0.01 0.01 0.01 0.00 0.00 0.00 0.00 0.00 0.00 0.00 0.00 0.00 0.00 0.00 0.02 0.04 0.04 0.04 0.09 0.10 0.05 0.02 0.01
0.00 0.00 0.00 0.00 0.00 0.00 0.00 0.00 0.00 0.03 0.08 0.11 0.08 0.19 0.17 0.02 0.00 0.00 0.00 0.00 0.00 0.00 0.00 0.00 0.00 0.00 0.01 0.00 0.00 0.00 0.00 0.00 0.00 0.00 0.00 0.00 0.00 0.00 0.00 0.00 0.00 0.01 0.01 0.02 0.03 0.02 0.01 0.01 0.03
0.00 0.00 0.00 0.00 0.00 0.00 0.00 0.00 0.00 0.04 0.13 0.18 0.16 0.16 0.20 0.05 0.01 0.00 0.00 0.00 0.00 0.00 0.00 0.00 0.00 0.00 0.00 0.00 0.00 0.00 0.00 0.00 0.00 0.00 0.00 0.00 0.00 0.00 0.00 0.01 0.02 0.03 0.01 0.01 0.01 0.00 0.01 0.01 0.01
0.00 0.00 0.00 0.00 0.00 0.00 0.00 0.00 0.00 0.02 0.07 0.13 0.15 0.18 0.16 0.08 0.02 0.01 0.00 0.00 0.00 0.00 0.00 0.00 0.00 0.00 0.00 0.00 0.00 0.00 0.00 0.00 0.00 0.00 0.00 0.00 0.00 0.00 0.00 0.00 0.01 0.03 0.02 0.01 0.00 0.00 0.00 0.00 0.00
0.00 0.00 0.00 0.00 0.00 0.00 0.00 0.00 0.00 0.01 0.03 0.07 0.11 0.16 0.14 0.06 0.02 0.01 0.01 0.00 0.00 0.00 0.00 0.00 0.00 0.00 0.00 0.00 0.00 0.00 0.00 0.00 0.00 0.00 0.00 0.00 0.00 0.01 0.01 0.01 0.00 0.04 0.05 0.02 0.01 0.00 0.00 0.00 0.00
0.00 0.00 0.00 0.00 0.00 0.00 0.00 0.00 0.00 0.01 0.02 0.04 0.05 0.08 0.11 0.12 0.05 0.01 0.01 0.02 0.03 0.01 0.00 0.00 0.01 0.01 0.00 0.00 0.00 0.01 0.00 0.00 0.00 0.00 0.00 0.01 0.00 0.01 0.02 0.01 0.00 0.03 0.06 0.01 0.00 0.00 0.00 0.00 0.00
0.00 0.00 0.00 0.00 0.00 0.00 0.00 0.00 0.00 0.02 0.02 0.03 0.03 0.03 0.04 0.08 0.07 0.03 0.02 0.05 0.07 0.04 0.02 0.01 0.01 0.02 0.02 0.01 0.01 0.01 0.01 0.01 0.01 0.01 0.01 0.01 0.01 0.01 0.02 0.02 0.02 0.04 0.04 0.01 0.00 0.00 0.00 0.00 0.00
0.00 0.00 0.00 0.00 0.00 0.00 0.00 0.00 0.00 0.02 0.03 0.05 0.07 0.09 0.10 0.11 0.11 0.08 0.06 0.12 0.13 0.11 0.11 0.08 0.06 0.07 0.07 0.05 0.02 0.02 0.02 0.01 0.01 0.01 0.01 0.01 0.02 0.04 0.03 0.03 0.05 0.06 0.04 0.04 0.02 0.00 0.00 0.00 0.00
0.00 0.00 0.00 0.00 0.00 0.00 0.00 0.00 0.01 0.03 0.07 0.12 0.19 0.23 0.24 0.21 0.17 0.16 0.22 0.30 0.25 0.21 0.26 0.20 0.18 0.18 0.14 0.10 0.08 0.08 0.09 0.08 0.06 0.04 0.04 0.03 0.03 0.06 0.06 0.06 0.07 0.07 0.05 0.11 0.07 0.01 0.00 0.00 0.00
0.00 0.00 0.00 0.00 0.00 0.00 0.00 0.00 0.02 0.05 0.07 0.07 0.12 0.16 0.14 0.19 0.21 0.26 0.41 0.47 0.39 0.36 0.42 0.44 0.47 0.45 0.33 0.26 0.22 0.22 0.27 0.23 0.17 0.13 0.09 0.07 0.06 0.06 0.06 0.08 0.09 0.06 0.06 0.13 0.09 0.02 0.02 0.04 0.05
0.00 0.00 0.00 0.00 0.00 0.00 0.00 0.00 0.02 0.08 0.13 0.15 0.13 0.13 0.12 0.11 0.12 0.18 0.33 0.50 0.62 0.68 0.73 0.79 0.83 0.74 0.56 0.46 0.36 0.32 0.35 0.34 0.31 0.27 0.17 0.11 0.11 0.12 0.10 0.09 0.13 0.07 0.07 0.09 0.10 0.06 0.05 0.10 0.08
0.00 0.00 0.00 0.00 0.00 0.00 0.00 0.00 0.01 0.03 0.06 0.11 0.16 0.17 0.11 0.09 0.12 0.20 0.31 0.50 0.77 1.02 1.22 1.27 1.21 1.05 0.86 0.71 0.55 0.43 0.36 0.29 0.25 0.25 0.19 0.15 0.17 0.19 0.17 0.14 0.12 0.09 0.09 0.07 0.11 0.14 0.12 0.09 0.04
0.00 0.00 0.00 0.00 0.00 0.00 0.00 0.00 0.00 0.00 0.01 0.03 0.09 0.15 0.16 0.19 0.24 0.31 0.42 0.60 0.71 0.92 1.11 1.25 1.22 1.11 0.95 0.79 0.60 0.40 0.29 0.22 0.21 0.20 0.15 0.15 0.22 0.21 0.21 0.19 0.17 0.18 0.18 0.14 0.16 0.18 0.14 0.06 0.02
0.00 0.00 0.00 0.00 0.00 0.00 0.00 0.00 0.00 0.00 0.01 0.01 0.07 0.13 0.19 0.30 0.35 0.40 0.52 0.66 0.68 0.72 0.80 0.88 0.91 0.86 0.76 0.63 0.49 0.40 0.33 0.28 0.25 0.22 0.17 0.16 0.16 0.15 0.17 0.20 0.23 0.23 0.19 0.13 0.13 0.15 0.11 0.04 0.03
0.00 0.01 0.01 0.00 0.00 0.00 0.00 0.00 0.01 0.01 0.02 0.04 0.06 0.12 0.23 0.40 0.50 0.60 0.70 0.74 0.78 0.74 0.71 0.74 0.73 0.65 0.52 0.41 0.31 0.28 0.23 0.21 0.20 0.19 0.16 0.16 0.16 0.16 0.15 0.17 0.15 0.11 0.08 0.07 0.08 0.08 0.08 0.06 0.09
0.02 0.03 0.05 0.02 0.01 0.00 0.00 0.02 0.01 0.01 0.02 0.07 0.10 0.14 0.27 0.43 0.53 0.66 0.73 0.62 0.53 0.48 0.47 0.47 0.42 0.32 0.23 0.19 0.17 0.15 0.13 0.12 0.11 0.11 0.12 0.13 0.13 0.12 0.08 0.06 0.04 0.03 0.03 0.04 0.10 0.16 0.13 0.16 0.18
0.06 0.08 0.06 0.05 0.02 0.01 0.02 0.04 0.01 0.02 0.04 0.08 0.16 0.23 0.28 0.35 0.38 0.40 0.38 0.37 0.37 0.34 0.29 0.23 0.18 0.12 0.08 0.06 0.07 0.06 0.06 0.06 0.05 0.06 0.06 0.06 0.06 0.04 0.03 0.02 0.01 0.01 0.01 0.03 0.07 0.17 0.15 0.15 0.21
0.07 0.13 0.11 0.08 0.05 0.02 0.04 0.06 0.03 0.04 0.05 0.07 0.20 0.46 0.44 0.32 0.30 0.30 0.30 0.30 0.28 0.22 0.16 0.11 0.09 0.07 0.05 0.04 0.04 0.04 0.03 0.03 0.03 0.04 0.03 0.02 0.02 0.01 0.01 0.01 0.01 0.00 0.01 0.03 0.07 0.14 0.22 0.18 0.20
0.11 0.14 0.12 0.09 0.08 0.06 0.04 0.05 0.05 0.15 0.11 0.09 0.19 0.34 0.32 0.19 0.14 0.13 0.12 0.13 0.16 0.21 0.19 0.10 0.06 0.04 0.02 0.01 0.01 0.01 0.01 0.01 0.01 0.01 0.01 0.01 0.00 0.00 0.00 0.00 0.00 0.00 0.01 0.01 0.02 0.07 0.16 0.19 0.16
0.09 0.16 0.15 0.12 0.09 0.06 0.04 0.07 0.06 0.14 0.10 0.07 0.16 0.15 0.12 0.08 0.05 0.04 0.04 0.04 0.07 0.09 0.09 0.05 0.03 0.02 0.01 0.00 0.00 0.00 0.00 0.00 0.00 0.00 0.00 0.00 0.00 0.00 0.00 0.00 0.00 0.00 0.00 0.01 0.01 0.01 0.05 0.11 0.15